TimeCDT,TemperatureF,Dew PointF,Humidity,Sea Level PressureIn,VisibilityMPH,Wind Direction,Wind SpeedMPH,Gust SpeedMPH,PrecipitationIn,Events,Conditions,WindDirDegrees,DateUTC
12:15 AM,80.6,55.4,42,30.01,10.0,Calm,Calm,-,N/A,,Clear,0,2013-08-20 05:15:00
12:35 AM,78.8,55.4,44,30.01,10.0,Calm,Calm,-,N/A,,Clear,0,2013-08-20 05:35:00
12:55 AM,78.8,59.0,51,30.01,10.0,Calm,Calm,-,N/A,,Clear,0,2013-08-20 05:55:00
1:15 AM,78.8,59.0,51,30.01,10.0,ENE,3.5,-,N/A,,Clear,70,2013-08-20 06:15:00
1:35 AM,77.0,59.0,54,30.01,10.0,Calm,Calm,-,N/A,,Clear,0,2013-08-20 06:35:00
1:55 AM,77.0,59.0,54,30.01,10.0,East,3.5,-,N/A,,Clear,90,2013-08-20 06:55:00
2:15 AM,77.0,59.0,54,30.01,10.0,Calm,Calm,-,N/A,,Clear,0,2013-08-20 07:15:00
2:35 AM,77.0,59.0,54,30.01,10.0,Calm,Calm,-,N/A,,Clear,0,2013-08-20 07:35:00
2:55 AM,77.0,59.0,54,30.01,10.0,Calm,Calm,-,N/A,,Clear,0,2013-08-20 07:55:00
3:15 AM,77.0,59.0,54,30.01,10.0,Calm,Calm,-,N/A,,Clear,0,2013-08-20 08:15:00
3:35 AM,77.0,59.0,54,30.01,10.0,SE,3.5,-,N/A,,Clear,130,2013-08-20 08:35:00
3:55 AM,75.2,59.0,57,30.01,10.0,SE,4.6,-,N/A,,Clear,130,2013-08-20 08:55:00
4:15 AM,73.4,59.0,61,30.01,10.0,Calm,Calm,-,N/A,,Clear,0,2013-08-20 09:15:00
4:35 AM,73.4,59.0,61,30.01,10.0,ESE,3.5,-,N/A,,Clear,110,2013-08-20 09:35:00
4:55 AM,73.4,59.0,61,30.01,10.0,ESE,3.5,-,N/A,,Clear,120,2013-08-20 09:55:00
5:15 AM,73.4,59.0,61,30.01,10.0,Calm,Calm,-,N/A,,Clear,0,2013-08-20 10:15:00
5:35 AM,71.6,60.8,69,30.01,10.0,Calm,Calm,-,N/A,,Clear,0,2013-08-20 10:35:00
5:55 AM,71.6,60.8,69,30.02,10.0,Calm,Calm,-,N/A,,Clear,0,2013-08-20 10:55:00
6:15 AM,71.6,60.8,69,30.03,10.0,Calm,Calm,-,N/A,,Clear,0,2013-08-20 11:15:00
6:35 AM,71.6,60.8,69,30.03,10.0,Calm,Calm,-,N/A,,Clear,0,2013-08-20 11:35:00
6:50 AM,71.6,60.8,69,30.04,10.0,Calm,Calm,-,N/A,,Clear,0,2013-08-20 11:50:00
6:55 AM,71.6,60.8,69,30.04,10.0,Calm,Calm,-,N/A,,Clear,0,2013-08-20 11:55:00
7:50 AM,73.4,62.6,69,30.06,10.0,Calm,Calm,-,N/A,,Clear,0,2013-08-20 12:50:00
8:50 AM,77.0,62.6,61,30.06,10.0,SSE,4.6,-,N/A,,Clear,160,2013-08-20 13:50:00
9:50 AM,80.6,62.6,54,30.07,10.0,South,4.6,-,N/A,,Clear,170,2013-08-20 14:50:00
10:50 AM,84.2,59.0,42,30.08,10.0,SSE,6.9,-,N/A,,Clear,160,2013-08-20 15:50:00
11:50 AM,89.6,55.4,31,30.07,10.0,WSW,4.6,-,N/A,,Clear,240,2013-08-20 16:50:00
12:50 PM,91.4,60.8,36,30.06,10.0,South,6.9,-,N/A,,Clear,180,2013-08-20 17:50:00
1:50 PM,93.2,53.6,26,30.04,10.0,East,6.9,-,N/A,,Clear,100,2013-08-20 18:50:00
2:50 PM,91.4,53.6,28,30.02,10.0,North,3.5,-,N/A,,Clear,360,2013-08-20 19:50:00
3:51 PM,95.0,53.6,25,30.00,10.0,ESE,6.9,-,N/A,,Clear,110,2013-08-20 20:51:00
4:52 PM,95.0,51.8,23,29.99,10.0,ESE,8.1,-,N/A,,Clear,120,2013-08-20 21:52:00
5:59 PM,93.2,53.6,26,29.98,10.0,East,5.8,-,N/A,,Clear,100,2013-08-20 22:59:00
6:52 PM,93.2,55.4,28,29.97,10.0,East,11.5,-,N/A,,Clear,100,2013-08-20 23:52:00
7:59 PM,89.6,55.4,31,29.98,10.0,East,4.6,-,N/A,,Clear,100,2013-08-21 00:59:00
9:15 PM,86.0,55.4,35,29.99,10.0,SE,3.5,-,N/A,,Clear,140,2013-08-21 02:15:00
9:35 PM,86.0,55.4,35,29.99,10.0,SSE,3.5,-,N/A,,Clear,150,2013-08-21 02:35:00
9:55 PM,84.2,55.4,37,30.00,10.0,SE,3.5,-,N/A,,Clear,140,2013-08-21 02:55:00
10:15 PM,82.4,55.4,39,30.01,10.0,SE,3.5,-,N/A,,Clear,130,2013-08-21 03:15:00
10:35 PM,82.4,55.4,39,30.01,10.0,SE,4.6,-,N/A,,Clear,140,2013-08-21 03:35:00
10:55 PM,82.4,57.2,42,30.02,10.0,SE,3.5,-,N/A,,Clear,130,2013-08-21 03:55:00
11:15 PM,82.4,55.4,39,30.02,10.0,SE,3.5,-,N/A,,Clear,140,2013-08-21 04:15:00
11:35 PM,80.6,57.2,45,30.02,10.0,SE,3.5,-,N/A,,Clear,130,2013-08-21 04:35:00
11:55 PM,80.6,55.4,42,30.02,10.0,SSE,3.5,-,N/A,,Clear,150,2013-08-21 04:55:00